Regional Weather Roundup
Issued by NWS Cleveland, OH

Home | Current Version | Previous Version | Text Only | Print | Product List | Glossary Off
Versions: 1 2 3 4 5 6 7 8 9 10 11 12 13 14 15 16 17 18 19 20 21 22 23 24 25 26 27 28 29 30 31 32 33 34 35 36 37 38 39 40 41 42 43 44 45 46 47 48 49 50

000
ASUS41 KCLE 180800
RWRCLE
OHIO REGIONAL WEATHER ROUNDUP
NATIONAL WEATHER SERVICE WILMINGTON, OH
400 AM EDT FRI APR 18 2014

NOTE: "FAIR" INDICATES FEW OR NO CLOUDS BELOW 12,000 FEET WITH NO
SIGNIFICANT WEATHER AND/OR OBSTRUCTIONS TO VISIBILITY.

OHZ001>008-015>018-024>027-034-035-043-044-180900-
   NORTHWEST OHIO

CITY           SKY/WX    TMP DP  RH WIND       PRES   REMARKS
DEFIANCE       CLOUDY    46  36  68 CALM      30.24S
FINDLAY        PTCLDY    47  35  63 CALM      30.22F
TOLEDO EXPRESS MOCLDY    48  36  63 SW3       30.22F
TOLEDO METCALF PTCLDY    42  34  73 S6        30.24S
LIMA           CLEAR     50  34  54 SW7       30.24F
$$

OHZ009>014-019>023-028>033-038-089-180900-
   NORTHEAST OHIO

CITY           SKY/WX    TMP DP  RH WIND       PRES   REMARKS
CLE-HOPKINS    PTCLDY    50  30  46 S12       30.28S
CLE-LAKEFRONT  CLEAR     50  29  44 SE14      30.24S
CUY CO. ARPT   NOT AVBL
LORAIN-ELYRIA  CLEAR     49  32  52 S9        30.26R
ASHTABULA      PTCLDY    46  27  47 S9        30.29S
AKRON-CANTON   PTCLDY    48  28  46 SE3       30.28S
WOOSTER        NOT AVBL
MANSFIELD      CLEAR     43  33  68 SE7       30.25S
YOUNGSTOWN     PTCLDY    44  27  51 SE12      30.28F
$$

OHZ042-051>053-060>062-070>072-077>081-180900-
  SOUTHWEST OHIO

CITY           SKY/WX    TMP DP  RH WIND       PRES   REMARKS
CINC-COVINGTON CLOUDY    43  36  76 W5        30.26R
CINC-LUNKEN    MOCLDY    39  38  96 CALM      30.28R
HAMILTON       PTCLDY    41  37  86 CALM      30.27R
DAYTON         NOT AVBL
WRIGHT-PAT AFB CLEAR     43  37  80 CALM      30.25S
DAYTON GENERAL PTCLDY    48  34  58 CALM      30.24S
WILMINGTON     PTCLDY    44  33  65 CALM      30.26R
$$

OHZ036-037-039>041-045>050-054>059-063>069-073>076-082>088-180900-
  CENTRAL AND SOUTHEAST OHIO

CITY           SKY/WX    TMP DP  RH WIND       PRES   REMARKS
COLUMBUS       PTCLDY    44  34  67 CALM      30.26S
OSU AIRPORT    PTCLDY    45  32  60 CALM      30.25F
BOLTON FIELD   NOT AVBL
RICKENBACK AFB NOT AVBL
NEWARK         PTCLDY    38  33  82 CALM      30.26F
MARION         CLEAR     42  33  70 S6        30.25F
LANCASTER      PTCLDY    37  33  85 CALM      30.27S
ZANESVILLE     PTCLDY    47  26  44 SE5       30.27F
NEW PHILLY     CLEAR     46  28  49 SE5       30.29F
$$



USA.gov is the U.S. government's official web portal to all federal, state and local government web resources and services.